| time (UTC) | temp C | wind direction | speed KPH | gust KPH | rain 1hr cm | rain 24hr cm | rain mn cm | humidity % | barometer mb |
| 20260505100536 | 15 | 146 | 8.0 | 14.5 | 0.00 | 0.00 | 0.00 | 57 | 1015.6 |
| 20260505095525 | 15 | 125 | 12.9 | 24.1 | 0.00 | 0.00 | 0.00 | 57 | 1015.5 |
| 20260505094525 | 15 | 126 | 11.3 | 24.1 | 0.00 | 0.00 | 0.00 | 55 | 1015.6 |
| 20260505093537 | 16 | 136 | 9.7 | 24.1 | 0.00 | 0.00 | 0.00 | 52 | 1015.6 |
| 20260505092524 | 16 | 146 | 9.7 | 14.5 | 0.00 | 0.00 | 0.00 | 53 | 1015.6 |
| 20260505091524 | 16 | 139 | 9.7 | 14.5 | 0.00 | 0.00 | 0.00 | 55 | 1015.7 |
| 20260505090525 | 16 | 118 | 4.8 | 8.0 | 0.00 | 0.00 | 0.00 | 52 | 1015.7 |
| 20260505085525 | 17 | 60 | 9.7 | 17.7 | 0.00 | 0.00 | 0.00 | 38 | 1015.8 |
| 20260505084536 | 17 | 72 | 12.9 | 17.7 | 0.00 | 0.00 | 0.00 | 39 | 1015.8 |
| 20260505083525 | 17 | 41 | 9.7 | 14.5 | 0.00 | 0.00 | 0.00 | 41 | 1015.8 |
| 20260505082548 | 17 | 35 | 8.0 | 14.5 | 0.00 | 0.00 | 0.00 | 40 | 1015.8 |
| 20260505081545 | 17 | 29 | 9.7 | 14.5 | 0.00 | 0.00 | 0.00 | 40 | 1015.7 |
| 20260505080525 | 17 | 27 | 9.7 | 14.5 | 0.00 | 0.00 | 0.00 | 44 | 1015.8 |
| 20260505075525 | 17 | 20 | 11.3 | 17.7 | 0.00 | 0.00 | 0.00 | 41 | 1015.8 |
| 20260505074525 | 16 | 36 | 11.3 | 17.7 | 0.00 | 0.00 | 0.00 | 42 | 1015.8 |
| 20260505073549 | 17 | 20 | 9.7 | 14.5 | 0.00 | 0.00 | 0.00 | 44 | 1015.8 |
| 20260505072525 | 16 | 25 | 9.7 | 14.5 | 0.00 | 0.00 | 0.00 | 44 | 1015.8 |
| 20260505071525 | 16 | 31 | 11.3 | 14.5 | 0.00 | 0.00 | 0.00 | 46 | 1015.8 |
| 20260505070524 | 16 | 42 | 11.3 | 17.7 | 0.00 | 0.00 | 0.00 | 46 | 1015.8 |
| 20260505065525 | 16 | 27 | 11.3 | 14.5 | 0.00 | 0.00 | 0.00 | 44 | 1015.7 |
| 20260505064545 | 16 | 20 | 11.3 | 14.5 | 0.00 | 0.00 | 0.00 | 46 | 1015.6 |
| 20260505063525 | 16 | 23 | 9.7 | 17.7 | 0.00 | 0.00 | 0.00 | 47 | 1015.6 |
| 20260505062525 | 16 | 20 | 11.3 | 14.5 | 0.00 | 0.00 | 0.00 | 46 | 1015.5 |
| 20260505061525 | 16 | 357 | 9.7 | 11.3 | 0.00 | 0.00 | 0.00 | 47 | 1015.4 |
| 20260505060545 | 15 | 15 | 9.7 | 14.5 | 0.00 | 0.00 | 0.00 | 47 | 1015.4 |
| 20260505055524 | 15 | 19 | 9.7 | 14.5 | 0.00 | 0.00 | 0.00 | 49 | 1015.4 |
| 20260505054524 | 14 | 25 | 9.7 | 14.5 | 0.00 | 0.00 | 0.00 | 52 | 1015.3 |
| 20260505053537 | 14 | 18 | 11.3 | 14.5 | 0.00 | 0.00 | 0.00 | 54 | 1015.2 |
| 20260505052524 | 15 | 24 | 9.7 | 14.5 | 0.00 | 0.00 | 0.00 | 51 | 1015.2 |
| 20260505051545 | 14 | 328 | 6.4 | 11.3 | 0.00 | 0.00 | 0.00 | 53 | 1015.0 |
| 20260505050537 | 13 | 318 | 6.4 | 11.3 | 0.00 | 0.00 | 0.00 | 54 | 1015.0 |
| 20260505041549 | 10 | 319 | 8.0 | 11.3 | 0.00 | 0.00 | 0.00 | 57 | 1014.7 |
| 20260505040548 | 10 | 323 | 6.4 | 11.3 | 0.00 | 0.00 | 0.00 | 59 | 1014.6 |
| 20260505035525 | 9 | 317 | 6.4 | 11.3 | 0.00 | 0.00 | 0.00 | 58 | 1014.5 |
| 20260505034525 | 9 | 315 | 8.0 | 11.3 | 0.00 | 0.00 | 0.00 | 59 | 1014.5 |
| 20260505033525 | 8 | 322 | 8.0 | 11.3 | 0.00 | 0.00 | 0.00 | 58 | 1014.4 |
| 20260505032525 | 8 | 313 | 6.4 | 11.3 | 0.00 | 0.00 | 0.00 | 59 | 1014.4 |
| 20260505031525 | 8 | 316 | 6.4 | 11.3 | 0.00 | 0.00 | 0.00 | 60 | 1014.4 |
| 20260505030524 | 7 | 328 | 6.4 | 6.4 | 0.00 | 0.00 | 0.00 | 61 | 1014.3 |
| 20260505025525 | 7 | 333 | 6.4 | 11.3 | 0.00 | 0.00 | 0.00 | 61 | 1014.3 |
| 20260505024548 | 7 | 321 | 6.4 | 11.3 | 0.00 | 0.00 | 0.00 | 61 | 1014.3 |
| 20260505023545 | 7 | 328 | 4.8 | 11.3 | 0.00 | 0.00 | 0.00 | 61 | 1014.2 |
| 20260505022545 | 7 | 331 | 4.8 | 6.4 | 0.00 | 0.00 | 0.00 | 61 | 1014.2 |
| 20260505021525 | 7 | 318 | 6.4 | 11.3 | 0.00 | 0.00 | 0.00 | 61 | 1014.2 |
| 20260505020545 | 7 | 332 | 6.4 | 6.4 | 0.00 | 0.00 | 0.00 | 62 | 1014.1 |
| 20260505015545 | 7 | 336 | 3.2 | 6.4 | 0.00 | 0.00 | 0.00 | 63 | 1014.1 |
| 20260505014525 | 7 | 330 | 3.2 | 6.4 | 0.00 | 0.00 | 0.00 | 63 | 1014.1 |
| 20260505013524 | 7 | 338 | 3.2 | 6.4 | 0.00 | 0.00 | 0.00 | 64 | 1014.2 |
| 20260505012525 | 7 | 320 | 4.8 | 6.4 | 0.00 | 0.00 | 0.00 | 62 | 1014.2 |
| 20260505011524 | 7 | 321 | 3.2 | 6.4 | 0.00 | 0.00 | 0.00 | 61 | 1014.2 |
| 20260505010525 | 7 | 317 | 4.8 | 6.4 | 0.00 | 0.00 | 0.00 | 60 | 1014.1 |
| 20260505005524 | 7 | 318 | 4.8 | 6.4 | 0.00 | 0.00 | 0.00 | 60 | 1014.1 |
| 20260505004524 | 7 | 319 | 4.8 | 6.4 | 0.00 | 0.00 | 0.00 | 61 | 1014.1 |
| 20260505003536 | 7 | 322 | 4.8 | 6.4 | 0.00 | 0.00 | 0.00 | 62 | 1014.1 |
| 20260505002525 | 8 | 316 | 4.8 | 6.4 | 0.00 | 0.00 | 0.00 | 60 | 1014.1 |
| 20260505001524 | 7 | 316 | 4.8 | 11.3 | 0.00 | 0.00 | 0.00 | 62 | 1014.2 |
| 20260505000524 | 7 | 330 | 4.8 | 6.4 | 0.00 | 0.00 | 0.00 | 62 | 1014.1 |
| 20260504235525 | 8 | 321 | 4.8 | 11.3 | 0.00 | 0.00 | 0.00 | 61 | 1014.2 |
| 20260504234545 | 7 | 319 | 4.8 | 11.3 | 0.00 | 0.00 | 0.00 | 62 | 1014.3 |
| 20260504233525 | 8 | 313 | 6.4 | 11.3 | 0.00 | 0.00 | 0.00 | 61 | 1014.4 |
| 20260504232524 | 8 | 308 | 6.4 | 11.3 | 0.00 | 0.00 | 0.00 | 61 | 1014.4 |
| 20260504231525 | 8 | 310 | 4.8 | 11.3 | 0.00 | 0.00 | 0.00 | 61 | 1014.4 |
| 20260504230524 | 8 | 309 | 4.8 | 11.3 | 0.00 | 0.00 | 0.00 | 59 | 1014.5 |
| 20260504225525 | 8 | 316 | 4.8 | 11.3 | 0.00 | 0.00 | 0.00 | 58 | 1014.6 |
| 20260504224525 | 8 | 321 | 4.8 | 11.3 | 0.00 | 0.00 | 0.00 | 58 | 1014.6 |
| 20260504223524 | 8 | 314 | 4.8 | 6.4 | 0.00 | 0.00 | 0.00 | 58 | 1014.7 |
| 20260504222525 | 9 | 316 | 4.8 | 11.3 | 0.00 | 0.00 | 0.00 | 57 | 1014.7 |
| 20260504221525 | 9 | 318 | 6.4 | 11.3 | 0.00 | 0.00 | 0.00 | 57 | 1014.8 |
| 20260504220537 | 8 | 312 | 6.4 | 11.3 | 0.00 | 0.00 | 0.00 | 58 | 1014.9 |
| 20260504215524 | 9 | 316 | 4.8 | 11.3 | 0.00 | 0.00 | 0.00 | 57 | 1014.9 |
| 20260504214536 | 9 | 315 | 6.4 | 11.3 | 0.00 | 0.00 | 0.00 | 57 | 1014.9 |
| 20260504213536 | 8 | 316 | 6.4 | 11.3 | 0.00 | 0.00 | 0.00 | 58 | 1014.9 |
| 20260504212525 | 8 | 317 | 6.4 | 11.3 | 0.00 | 0.00 | 0.00 | 59 | 1014.9 |
| 20260504211525 | 8 | 319 | 6.4 | 11.3 | 0.00 | 0.00 | 0.00 | 58 | 1014.9 |
| 20260504210525 | 9 | 318 | 6.4 | 11.3 | 0.00 | 0.00 | 0.00 | 57 | 1014.9 |
| 20260504205601 | 9 | 325 | 8.0 | 11.3 | 0.00 | 0.00 | 0.00 | 57 | 1014.9 |
| 20260504204525 | 9 | 314 | 8.0 | 11.3 | 0.00 | 0.00 | 0.00 | 57 | 1015.0 |
| 20260504203536 | 9 | 319 | 6.4 | 11.3 | 0.00 | 0.00 | 0.00 | 58 | 1015.0 |
| 20260504202548 | 9 | 315 | 6.4 | 11.3 | 0.00 | 0.00 | 0.00 | 58 | 1015.1 |
| 20260504201609 | 9 | 314 | 4.8 | 6.4 | 0.00 | 0.00 | 0.00 | 59 | 1015.1 |
| 20260504200525 | 9 | 316 | 4.8 | 6.4 | 0.00 | 0.00 | 0.00 | 59 | 1015.1 |
| 20260504195524 | 9 | 326 | 4.8 | 6.4 | 0.00 | 0.00 | 0.00 | 59 | 1015.1 |
| 20260504194601 | 9 | 338 | 3.2 | 6.4 | 0.00 | 0.00 | 0.00 | 59 | 1015.1 |
| 20260504193525 | 9 | 311 | 4.8 | 6.4 | 0.00 | 0.00 | 0.00 | 59 | 1015.1 |
| 20260504192605 | 9 | 322 | 6.4 | 11.3 | 0.00 | 0.00 | 0.00 | 59 | 1015.1 |
| 20260504191526 | 9 | 319 | 6.4 | 11.3 | 0.00 | 0.00 | 0.00 | 60 | 1015.1 |
| 20260504190524 | 9 | 315 | 4.8 | 6.4 | 0.00 | 0.00 | 0.00 | 60 | 1015.1 |
| 20260504185537 | 9 | 331 | 4.8 | 6.4 | 0.00 | 0.00 | 0.00 | 61 | 1015.0 |
| 20260504184525 | 8 | 332 | 3.2 | 6.4 | 0.00 | 0.00 | 0.00 | 62 | 1015.0 |
| 20260504183524 | 8 | 338 | 3.2 | 6.4 | 0.00 | 0.00 | 0.00 | 61 | 1015.0 |
| 20260504182524 | 9 | 338 | 3.2 | 6.4 | 0.00 | 0.00 | 0.00 | 60 | 1015.0 |
| 20260504181524 | 10 | 359 | 4.8 | 6.4 | 0.00 | 0.00 | 0.00 | 59 | 1014.8 |
| 20260504180525 | 10 | 338 | 6.4 | 6.4 | 0.00 | 0.00 | 0.00 | 59 | 1014.8 |
| 20260504175537 | 10 | 338 | 4.8 | 6.4 | 0.00 | 0.00 | 0.00 | 59 | 1014.7 |
| 20260504174524 | 10 | 338 | 6.4 | 11.3 | 0.00 | 0.00 | 0.00 | 59 | 1014.6 |
| 20260504173545 | 10 | 338 | 6.4 | 6.4 | 0.00 | 0.00 | 0.00 | 61 | 1014.5 |
| 20260504172537 | 10 | 0 | 4.8 | 6.4 | 0.00 | 0.00 | 0.00 | 63 | 1014.5 |
| 20260504171537 | 10 | 0 | 6.4 | 6.4 | 0.00 | 0.00 | 0.00 | 63 | 1014.5 |
| 20260504170525 | 11 | 12 | 4.8 | 6.4 | 0.00 | 0.00 | 0.00 | 63 | 1014.5 |
| 20260504150524 | 12 | 64 | 14.5 | 24.1 | 0.00 | 0.00 | 0.00 | 51 | 1014.1 |
| 20260504140537 | 15 | 72 | 12.9 | 17.7 | 0.00 | 0.00 | 0.00 | 50 | 1013.7 |
| 20260504130525 | 16 | 16 | 19.3 | 27.4 | 0.00 | 0.00 | 0.00 | 43 | 1013.7 |
| 20260504110524 | 15 | 19 | 17.7 | 32.2 | 0.00 | 0.00 | 0.00 | 44 | 1014.2 |